DL5ARK Weather Reports


Display with metric or nautical units.
time (UTC)temp
F
wind
direction
speed
MPH
gust
MPH
rain 1hr
in
rain 24hr
in
rain mn
in
humidity
%
barometer
mb
20260507003948 53 270 1.0 1.0 0.00 0.00 0.24 83 994.1
20260507003647 53 315 0.0 0.0 0.00 0.00 0.24 83 994.4
20260507003348 53 0 0.0 0.0 0.00 0.00 0.24 83 994.4
20260507003047 53 0 0.0 0.0 0.00 0.00 0.24 83 994.4
20260507002747 53 315 0.0 0.0 0.00 0.00 0.22 83 994.4
20260507002448 53 270 1.0 1.0 0.00 0.00 0.22 83 994.4
20260507002147 53 270 0.0 0.0 0.00 0.00 0.22 83 994.1
20260507001848 53 270 0.0 0.0 0.00 0.00 0.22 83 994.4
20260507001547 53 270 0.0 0.0 0.00 0.00 0.19 83 994.1
20260507000946 53 270 2.0 2.0 0.00 0.00 0.19 83 994.1
20260507000647 53 225 0.0 0.0 0.00 0.00 0.18 83 994.4
20260507000350 53 225 2.0 2.0 0.00 0.00 0.16 83 994.4
20260507000048 53 337 2.0 2.0 0.00 0.00 0.12 83 994.4
20260506235448 53 225 0.0 0.0 0.00 0.00 0.09 83 994.4
20260506235147 53 225 2.0 2.0 0.00 0.00 0.09 83 994.4
20260506234847 53 180 1.0 1.0 0.00 0.00 0.09 83 994.4
20260506234547 53 225 2.0 2.0 0.00 0.00 0.09 83 994.4
20260506234247 53 337 1.0 1.0 0.00 0.00 0.09 83 994.1
20260506233647 53 180 3.0 3.0 0.00 0.00 0.08 82 994.4
20260506233347 53 180 3.0 3.0 0.00 0.00 0.08 82 994.4
20260506233048 53 337 2.0 2.0 0.00 0.00 0.08 82 994.1
20260506232747 53 90 0.0 0.0 0.00 0.00 0.08 81 994.4
20260506232448 53 337 0.0 0.0 0.00 0.00 0.08 81 994.4
20260506232148 53 90 0.0 0.0 0.00 0.00 0.08 81 994.4
20260506231848 53 90 0.0 0.0 0.00 0.00 0.08 80 994.4
20260506231547 53 90 0.0 0.0 0.00 0.00 0.08 80 994.4
20260506231247 53 90 0.0 0.0 0.00 0.00 0.08 80 994.4
20260506230948 53 45 0.0 0.0 0.00 0.00 0.08 79 994.4
20260506230647 53 90 0.0 0.0 0.00 0.00 0.08 79 994.4
20260506230047 53 337 0.0 0.0 0.00 0.00 0.06 79 994.4
20260506225747 53 90 0.0 0.0 0.00 0.00 0.06 78 994.4
20260506225447 53 90 0.0 0.0 0.00 0.00 0.06 79 994.4
20260506225148 53 45 0.0 0.0 0.00 0.00 0.04 78 994.4
20260506224847 53 45 0.0 0.0 0.00 0.00 0.04 78 994.4
20260506224550 53 337 0.0 0.0 0.00 0.00 0.04 78 994.4
20260506224248 53 135 0.0 0.0 0.00 0.00 0.02 78 994.1
20260506223948 53 135 0.0 0.0 0.00 0.00 0.02 77 994.4
20260506223647 53 135 0.0 0.0 0.00 0.00 0.02 77 994.1
20260506223347 53 337 0.0 0.0 0.00 0.00 0.02 77 994.1
20260506223048 53 135 1.0 1.0 0.00 0.00 0.02 77 994.1
20260506222448 53 337 0.0 0.0 0.00 0.00 0.00 77 994.1
20260506222147 53 135 0.0 0.0 0.00 0.00 0.00 76 994.1
20260506221847 54 135 0.0 0.0 0.00 0.00 0.00 77 993.9
20260506221548 54 112 0.0 0.0 0.00 0.00 0.00 76 993.9
20260506221247 54 112 0.0 0.0 0.00 0.00 0.00 77 993.9
20260506220948 54 90 1.0 1.0 0.00 0.00 0.00 76 993.9
20260506220648 54 315 0.0 0.0 0.00 0.00 0.00 76 993.9
20260506220347 54 315 0.0 0.0 0.00 0.00 0.00 75 993.9
20260506220048 54 315 0.0 0.0 0.00 0.00 0.00 75 993.9
20260506215747 54 315 0.0 0.0 0.00 0.00 0.02 75 993.9
20260506215147 54 315 0.0 0.0 0.00 0.00 0.02 74 993.9
20260506214847 54 337 0.0 0.0 0.00 0.00 0.02 74 993.9
20260506214547 53 315 0.0 0.0 0.00 0.00 0.02 74 993.9
20260506214248 53 315 0.0 0.0 0.00 0.00 0.02 73 993.9
20260506213950 54 337 0.0 0.0 0.00 0.00 0.02 72 993.9
20260506213650 54 337 0.0 0.0 0.00 0.00 0.02 72 993.9
20260506213348 54 270 0.0 0.0 0.00 0.00 0.02 72 993.9
20260506213048 54 337 0.0 0.0 0.00 0.00 0.02 71 993.9
20260506212748 54 270 1.0 1.0 0.00 0.00 0.02 72 993.9
20260506212148 54 247 0.0 0.0 0.00 0.00 0.02 72 993.9
20260506211847 54 337 0.0 0.0 0.00 0.00 0.02 72 993.9
20260506211548 53 45 0.0 0.0 0.00 0.00 0.02 72 993.6
20260506211247 53 337 0.0 0.0 0.00 0.00 0.02 72 993.9
20260506210948 53 45 0.0 0.0 0.00 0.00 0.02 72 993.9
20260506210348 53 337 0.0 0.0 0.00 0.00 0.02 71 993.6
20260506210047 54 315 0.0 0.0 0.00 0.00 0.02 70 993.6
20260506205748 54 180 0.0 0.0 0.00 0.00 0.02 70 993.6
20260506205447 54 337 0.0 0.0 0.00 0.00 0.02 70 993.6
20260506205147 54 225 0.0 0.0 0.00 0.00 0.02 70 993.6
20260506204547 54 225 0.0 0.0 0.00 0.00 0.02 69 993.6
20260506204248 54 180 0.0 0.0 0.00 0.00 0.02 69 993.6
20260506203948 54 225 1.0 1.0 0.00 0.00 0.02 69 993.4
20260506203647 55 180 2.0 2.0 0.00 0.00 0.02 68 993.6
20260506203348 55 202 0.0 0.0 0.00 0.00 0.02 67 993.4
20260506203048 55 202 0.0 0.0 0.00 0.00 0.02 68 993.6
20260506202747 55 270 0.0 0.0 0.00 0.00 0.02 67 993.4
20260506202448 55 270 1.0 1.0 0.00 0.00 0.02 67 993.4
20260506202148 55 315 2.0 2.0 0.00 0.00 0.02 67 993.4
20260506201850 55 337 2.0 2.0 0.00 0.00 0.02 67 993.4
20260506201550 55 270 3.0 3.0 0.00 0.00 0.02 67 993.4
20260506201247 55 270 2.0 2.0 0.00 0.00 0.02 68 993.4
20260506200948 55 292 3.0 4.0 0.00 0.00 0.02 67 993.4
20260506200647 55 315 2.0 2.0 0.00 0.00 0.02 68 993.6
20260506200347 55 315 3.0 3.0 0.00 0.00 0.02 68 993.4
20260506200048 55 337 2.0 2.0 0.00 0.00 0.02 68 993.4
20260506195750 55 270 2.0 2.0 0.00 0.00 0.02 68 993.4
20260506195447 56 337 5.0 5.0 0.00 0.00 0.02 69 993.4
20260506195148 56 270 4.0 4.0 0.00 0.00 0.02 70 993.4
20260506194848 56 247 4.0 4.0 0.00 0.00 0.02 70 993.4
20260506194548 56 270 3.0 3.0 0.00 0.00 0.02 70 993.4
20260506194248 56 270 6.0 6.0 0.00 0.00 0.02 70 993.4
20260506193947 56 315 3.0 3.0 0.00 0.00 0.02 70 993.4
20260506193647 55 315 2.0 2.0 0.00 0.00 0.02 70 993.4
20260506193347 55 315 3.0 3.0 0.00 0.00 0.02 70 993.1
20260506193048 55 315 3.0 3.0 0.00 0.00 0.02 70 993.4
20260506192747 55 315 2.0 2.0 0.00 0.00 0.02 69 993.1
20260506192450 55 337 2.0 2.0 0.00 0.00 0.02 69 993.1
20260506192148 55 337 2.0 2.0 0.00 0.00 0.02 69 992.9
20260506191848 55 337 2.0 2.0 0.00 0.00 0.02 69 992.9
20260506191548 55 337 0.0 0.0 0.00 0.00 0.02 69 992.9
20260506191247 55 292 1.0 1.0 0.00 0.00 0.02 69 992.9
20260506190947 55 315 1.0 1.0 0.00 0.00 0.02 68 992.9
20260506190347 55 315 0.0 0.0 0.00 0.00 0.02 68 992.6
20260506190048 55 315 0.0 0.0 0.00 0.00 0.02 69 992.6
20260506185747 55 292 0.0 0.0 0.00 0.00 0.02 68 992.6
20260506185447 55 292 0.0 0.0 0.00 0.00 0.02 68 992.6
20260506185147 55 292 0.0 0.0 0.00 0.00 0.02 68 992.4
20260506184850 56 292 0.0 0.0 0.00 0.00 0.02 67 992.6
20260506184548 56 292 0.0 0.0 0.00 0.00 0.02 67 992.4
20260506184247 56 292 0.0 0.0 0.00 0.00 0.02 67 992.4
20260506183947 56 292 0.0 0.0 0.00 0.00 0.02 67 992.4
20260506183647 57 292 0.0 0.0 0.00 0.00 0.02 66 992.4
20260506183050 57 292 0.0 0.0 0.00 0.00 0.02 65 992.4
20260506182747 58 270 0.0 0.0 0.00 0.00 0.02 64 992.1
20260506182147 59 337 0.0 0.0 0.00 0.00 0.02 63 992.1
20260506181847 59 315 1.0 1.0 0.00 0.00 0.02 63 992.1
20260506181548 59 315 1.0 1.0 0.00 0.00 0.02 63 992.1
20260506181247 59 337 1.0 2.0 0.00 0.00 0.02 63 992.1
20260506180948 59 315 1.0 1.0 0.00 0.00 0.02 63 992.1
20260506180648 59 0 1.0 2.0 0.00 0.00 0.02 63 992.1
20260506180047 59 0 2.0 2.0 0.00 0.00 0.02 63 992.1
20260506175748 60 315 1.0 1.0 0.00 0.00 0.02 63 992.1
20260506175448 60 337 2.0 2.0 0.00 0.00 0.02 62 992.1
20260506175148 60 315 4.0 4.0 0.00 0.00 0.02 62 991.9
20260506174848 60 337 1.0 1.0 0.00 0.00 0.02 62 992.1
20260506174550 60 270 5.0 5.0 0.00 0.00 0.02 62 991.9
20260506174248 61 315 2.0 2.0 0.00 0.00 0.02 61 992.1
20260506173946 61 315 2.0 2.0 0.00 0.00 0.02 61 991.9
20260506173648 62 270 2.0 2.0 0.00 0.00 0.02 60 991.9
20260506173348 62 337 5.0 5.0 0.00 0.00 0.02 60 991.9
20260506173050 62 315 3.0 3.0 0.00 0.00 0.02 61 991.9
20260506172748 62 270 2.0 2.0 0.00 0.00 0.02 60 991.9
20260506172448 63 270 3.0 3.0 0.00 0.00 0.02 60 991.6
20260506172147 63 270 1.0 1.0 0.00 0.00 0.02 60 991.6
20260506171847 63 337 4.0 4.0 0.00 0.00 0.02 60 991.6
20260506171248 62 270 4.0 4.0 0.00 0.00 0.02 59 991.6
20260506170948 62 292 5.0 5.0 0.00 0.00 0.02 58 991.6
20260506170647 63 315 4.0 4.0 0.00 0.00 0.02 58 991.6
20260506170348 63 337 3.0 3.0 0.00 0.00 0.02 58 991.4
20260506170048 63 315 4.0 4.0 0.00 0.00 0.02 58 991.6
20260506165448 63 315 4.0 4.0 0.00 0.00 0.02 58 991.6
20260506165150 64 270 6.0 6.0 0.00 0.00 0.02 58 991.6
20260506164847 64 270 3.0 3.0 0.00 0.00 0.02 57 991.4
20260506164547 64 292 2.0 2.0 0.00 0.00 0.02 57 991.4
20260506164247 64 247 1.0 1.0 0.00 0.00 0.02 56 991.6
20260506163950 64 225 2.0 2.0 0.00 0.00 0.02 56 991.4
20260506163648 64 337 1.0 1.0 0.00 0.00 0.02 56 991.6
20260506163347 64 225 6.0 6.0 0.00 0.00 0.02 56 991.6
20260506163047 64 202 5.0 5.0 0.00 0.00 0.02 55 991.6
20260506162748 64 225 3.0 4.0 0.00 0.00 0.02 55 991.6
20260506162447 64 225 3.0 3.0 0.00 0.00 0.02 55 991.6
20260506161848 64 180 5.0 5.0 0.00 0.00 0.02 55 991.9
20260506161547 65 202 3.0 3.0 0.00 0.00 0.02 54 991.9
20260506161247 65 225 3.0 3.0 0.00 0.00 0.02 54 991.9
20260506160948 65 292 3.0 3.0 0.00 0.00 0.02 53 991.9
20260506160647 65 225 4.0 4.0 0.00 0.00 0.02 53 991.9
20260506160348 65 225 2.0 2.0 0.00 0.00 0.02 54 991.9
20260506160047 65 270 3.0 3.0 0.00 0.00 0.02 53 991.9
20260506155748 66 270 1.0 1.0 0.00 0.00 0.02 53 991.9
20260506155450 66 337 4.0 4.0 0.00 0.00 0.02 52 991.9
20260506155148 66 270 5.0 5.0 0.00 0.00 0.02 52 991.9
20260506154847 66 292 1.0 2.0 0.00 0.00 0.02 51 992.1
20260506154548 66 225 2.0 2.0 0.00 0.00 0.02 52 992.1
20260506154248 66 225 2.0 2.0 0.00 0.00 0.02 52 991.9
20260506153947 65 270 5.0 5.0 0.00 0.00 0.02 51 991.9
20260506153650 66 225 8.0 8.0 0.00 0.00 0.02 52 991.9
20260506153348 66 225 4.0 4.0 0.00 0.00 0.02 51 991.9
20260506153047 67 270 2.0 2.0 0.00 0.00 0.02 51 991.9
20260506152748 67 337 1.0 2.0 0.00 0.00 0.02 51 991.9
20260506152448 66 225 3.0 3.0 0.00 0.00 0.02 51 991.9
20260506152147 67 225 4.0 4.0 0.00 0.00 0.02 52 991.9
20260506151847 68 225 2.0 2.0 0.00 0.00 0.02 53 991.9
20260506151547 68 180 3.0 3.0 0.00 0.00 0.02 52 991.9
20260506151248 68 292 2.0 2.0 0.00 0.00 0.02 52 991.9
20260506150948 68 225 2.0 2.0 0.00 0.00 0.02 51 991.9
20260506150647 67 337 3.0 3.0 0.00 0.00 0.02 51 991.9
20260506150047 68 225 2.0 2.0 0.00 0.00 0.02 49 991.9
20260506145748 69 270 2.0 2.0 0.00 0.00 0.02 48 991.9
20260506145447 69 225 4.0 4.0 0.00 0.00 0.02 51 991.9
20260506145147 69 337 2.0 2.0 0.00 0.00 0.02 51 991.9
20260506144847 69 337 0.0 0.0 0.00 0.00 0.02 52 991.9
20260506144550 70 270 3.0 3.0 0.00 0.00 0.02 52 991.9
20260506144248 68 202 4.0 4.0 0.00 0.00 0.02 53 992.1
20260506143947 68 337 4.0 4.0 0.00 0.00 0.02 52 992.1
20260506143647 69 270 4.0 4.0 0.00 0.00 0.02 53 992.1
20260506143347 69 247 3.0 3.0 0.00 0.00 0.02 54 992.1
20260506143047 69 180 3.0 3.0 0.00 0.00 0.02 54 992.4
20260506142450 69 225 2.0 2.0 0.00 0.00 0.02 53 992.1
20260506142148 69 270 3.0 3.0 0.00 0.00 0.02 54 992.1
20260506141847 69 315 2.0 2.0 0.00 0.00 0.02 54 992.4
20260506141547 67 180 3.0 3.0 0.00 0.00 0.02 54 992.4
20260506141247 69 225 5.0 5.0 0.00 0.00 0.02 56 992.1
20260506140948 69 180 4.0 4.0 0.00 0.00 0.02 55 992.4
20260506140647 68 337 3.0 4.0 0.00 0.00 0.02 55 992.1
20260506140348 68 270 2.0 2.0 0.00 0.00 0.02 55 992.1
20260506140048 68 270 3.0 3.0 0.00 0.00 0.02 52 992.1
20260506135748 68 180 2.0 2.0 0.00 0.00 0.02 54 992.1
20260506135148 67 202 5.0 5.0 0.00 0.00 0.02 56 992.1
20260506134847 67 180 4.0 4.0 0.00 0.00 0.02 56 992.1
20260506134548 67 202 2.0 2.0 0.00 0.00 0.02 56 992.1
20260506134247 66 180 4.0 4.0 0.00 0.00 0.02 54 992.4
20260506133947 67 180 5.0 5.0 0.00 0.00 0.02 56 992.4
20260506133650 67 225 4.0 4.0 0.00 0.00 0.02 56 992.4
20260506133348 67 180 1.0 1.0 0.00 0.00 0.02 54 992.4
20260506133047 67 157 1.0 2.0 0.00 0.00 0.02 55 992.4
20260506132748 67 337 4.0 4.0 0.00 0.00 0.02 56 992.4
20260506132448 67 225 5.0 5.0 0.00 0.00 0.02 54 992.4
20260506132150 67 225 8.0 8.0 0.00 0.00 0.02 55 992.4
20260506131848 67 135 2.0 2.0 0.00 0.00 0.02 55 992.4
20260506131547 66 225 3.0 3.0 0.00 0.00 0.02 55 992.4
20260506131247 67 135 3.0 3.0 0.00 0.00 0.02 54 992.4
20260506130948 67 225 4.0 4.0 0.00 0.00 0.02 54 992.4
20260506130647 68 180 5.0 5.0 0.00 0.00 0.02 56 992.4
20260506130347 68 180 4.0 4.0 0.00 0.00 0.02 55 992.4
20260506130047 69 202 5.0 5.0 0.00 0.00 0.02 55 992.4
20260506125747 68 135 2.0 2.0 0.00 0.00 0.02 56 992.4
20260506125447 69 180 3.0 3.0 0.00 0.00 0.02 56 992.4
20260506125147 69 337 2.0 2.0 0.00 0.00 0.02 57 992.4
20260506124847 68 202 2.0 2.0 0.00 0.00 0.02 57 992.4
20260506124550 67 135 0.0 0.0 0.00 0.00 0.02 56 992.6
20260506124247 67 337 4.0 4.0 0.00 0.00 0.02 56 992.6
20260506123948 67 202 4.0 4.0 0.00 0.00 0.02 54 992.4
20260506123647 67 315 0.0 0.0 0.00 0.00 0.02 54 992.6
20260506123347 67 225 5.0 5.0 0.00 0.00 0.02 54 992.4
20260506123050 68 247 0.0 0.0 0.00 0.00 0.02 54 992.4
20260506122747 71 225 1.0 1.0 0.00 0.00 0.02 58 992.6
20260506122447 70 225 5.0 5.0 0.00 0.00 0.02 59 992.4
20260506122148 69 180 4.0 4.0 0.00 0.00 0.02 59 992.6
20260506121850 67 202 4.0 4.0 0.00 0.00 0.02 58 992.6
20260506121548 68 180 4.0 4.0 0.00 0.00 0.02 60 992.9
20260506121247 67 157 4.0 4.0 0.00 0.00 0.02 59 992.6
20260506120947 67 337 1.0 1.0 0.00 0.00 0.02 59 992.6
20260506120647 65 225 5.0 5.0 0.00 0.00 0.02 58 992.9
20260506120350 64 180 6.0 6.0 0.00 0.00 0.02 59 992.9
20260506120048 64 202 4.0 4.0 0.00 0.00 0.02 58 992.9
20260506115748 65 225 8.0 8.0 0.00 0.00 0.02 59 992.9
20260506115447 65 225 3.0 3.0 0.00 0.00 0.02 59 992.6
20260506115147 64 337 6.0 6.0 0.00 0.00 0.02 57 992.6
20260506114847 65 202 6.0 6.0 0.00 0.00 0.02 56 992.6
20260506114550 66 157 4.0 4.0 0.00 0.00 0.02 57 992.6
20260506114247 66 180 4.0 4.0 0.00 0.00 0.02 57 992.6
20260506113947 68 135 6.0 6.0 0.00 0.00 0.02 62 992.6
20260506113648 66 180 4.0 4.0 0.00 0.00 0.02 57 992.6
20260506113347 66 202 8.0 8.0 0.00 0.00 0.02 57 992.6
20260506113048 66 225 5.0 5.0 0.00 0.00 0.02 59 992.9
20260506112750 66 180 8.0 8.0 0.00 0.00 0.02 58 992.6
20260506112447 67 135 4.0 4.0 0.00 0.00 0.02 62 992.6
20260506112147 66 225 4.0 4.0 0.00 0.00 0.02 60 992.6
20260506111848 65 225 3.0 4.0 0.00 0.00 0.02 58 992.6
20260506111548 65 292 2.0 2.0 0.00 0.00 0.02 58 992.9
20260506111248 67 180 9.0 9.0 0.00 0.00 0.02 62 992.6
20260506110947 67 202 2.0 2.0 0.00 0.00 0.02 63 992.9
20260506110647 65 225 4.0 4.0 0.00 0.00 0.02 60 992.9
20260506110348 65 337 5.0 5.0 0.00 0.00 0.02 61 992.9
20260506110047 66 180 2.0 2.0 0.00 0.00 0.02 62 992.9
20260506105747 65 225 5.0 5.0 0.00 0.00 0.02 61 992.9
20260506105147 66 337 3.0 3.0 0.00 0.00 0.02 63 992.9
20260506104847 66 225 3.0 3.0 0.00 0.00 0.02 64 992.6
20260506104547 65 247 6.0 6.0 0.00 0.00 0.02 64 992.9
20260506104247 65 225 9.0 9.0 0.00 0.00 0.02 64 992.9
20260506103950 64 337 5.0 5.0 0.00 0.00 0.02 64 992.9
20260506103648 64 247 5.0 5.0 0.00 0.00 0.02 66 992.9
20260506103348 63 225 5.0 5.0 0.00 0.00 0.02 64 992.9
20260506103046 63 202 7.0 7.0 0.00 0.00 0.02 63 992.9
20260506102748 64 337 6.0 6.0 0.00 0.00 0.02 65 992.9
20260506102447 64 180 7.0 7.0 0.00 0.00 0.02 66 992.9
20260506102148 64 225 4.0 4.0 0.00 0.00 0.02 66 992.9
20260506101847 64 225 6.0 6.0 0.00 0.00 0.02 69 992.9
20260506101548 63 180 7.0 7.0 0.00 0.00 0.02 67 992.9
20260506101247 62 225 8.0 8.0 0.00 0.00 0.02 68 992.9
20260506100948 63 180 3.0 3.0 0.00 0.00 0.02 69 992.9
20260506100647 63 225 5.0 5.0 0.00 0.00 0.02 69 992.9
20260506100350 63 337 6.0 6.0 0.00 0.00 0.02 68 992.9
20260506100047 62 180 9.0 9.0 0.00 0.00 0.02 69 992.9
20260506095747 62 337 4.0 4.0 0.00 0.00 0.02 70 992.9
20260506095447 62 247 2.0 2.0 0.00 0.00 0.02 70 992.9
20260506095147 62 270 4.0 4.0 0.00 0.00 0.02 69 992.9
20260506094848 61 337 2.0 2.0 0.00 0.00 0.02 69 992.9
20260506094247 61 337 4.0 4.0 0.00 0.00 0.02 70 992.9
20260506093947 62 202 3.0 3.0 0.00 0.00 0.02 72 992.9
20260506093647 62 180 3.0 3.0 0.00 0.00 0.02 71 992.9
20260506093347 61 225 2.0 2.0 0.00 0.00 0.02 71 992.9
20260506093047 60 202 3.0 3.0 0.00 0.00 0.02 70 992.9
20260506092750 61 225 2.0 2.0 0.00 0.00 0.02 72 992.9
20260506092447 61 270 3.0 3.0 0.00 0.00 0.02 71 992.9
20260506092148 62 270 1.0 1.0 0.00 0.00 0.02 72 992.9
20260506091847 61 180 2.0 2.0 0.00 0.00 0.02 72 993.1
20260506091548 61 337 7.0 7.0 0.00 0.00 0.02 72 993.1
20260506091248 61 225 5.0 6.0 0.00 0.00 0.02 73 993.1
20260506090948 62 337 3.0 3.0 0.00 0.00 0.02 73 993.1
20260506090647 61 270 8.0 8.0 0.00 0.00 0.02 73 992.9
20260506090348 61 225 4.0 4.0 0.00 0.00 0.02 75 992.9
20260506090047 61 202 8.0 8.0 0.00 0.00 0.02 77 992.9
20260506085748 60 225 6.0 6.0 0.00 0.00 0.02 75 992.9
20260506085148 60 247 4.0 4.0 0.00 0.00 0.02 75 992.9
20260506084847 60 225 4.0 4.0 0.00 0.00 0.02 75 992.9
20260506084547 61 270 4.0 4.0 0.00 0.00 0.02 75 992.6
20260506084248 61 315 3.0 4.0 0.00 0.00 0.02 75 992.9
20260506083947 60 247 4.0 4.0 0.00 0.00 0.02 75 992.9
20260506083347 60 337 7.0 7.0 0.00 0.00 0.02 75 992.6
20260506083047 61 270 8.0 8.0 0.00 0.00 0.02 79 992.6
20260506082747 61 270 4.0 4.0 0.00 0.00 0.02 80 992.6
20260506082448 60 225 5.0 5.0 0.00 0.00 0.02 80 992.6
20260506082148 60 225 6.0 6.0 0.00 0.00 0.02 81 992.6
20260506081850 59 247 4.0 4.0 0.00 0.00 0.02 80 992.6
20260506081547 59 270 8.0 8.0 0.00 0.00 0.02 81 992.9
20260506081247 59 225 3.0 3.0 0.00 0.00 0.02 82 992.9
20260506080948 58 337 4.0 4.0 0.00 0.00 0.02 81 992.6
20260506080647 58 337 6.0 6.0 0.00 0.00 0.02 81 992.6
20260506080350 58 225 6.0 6.0 0.00 0.00 0.02 81 992.6
20260506073347 59 270 1.0 1.0 0.00 0.00 0.02 85 992.4
20260506073048 58 292 1.0 1.0 0.00 0.00 0.02 85 992.6
20260506072446 57 225 7.0 7.0 0.00 0.00 0.02 86 992.4
20260506072147 57 225 4.0 4.0 0.00 0.00 0.02 86 992.4
20260506071848 57 180 4.0 4.0 0.00 0.00 0.02 86 992.4
20260506071548 56 337 2.0 2.0 0.00 0.00 0.02 85 992.4
20260506071247 57 337 3.0 3.0 0.00 0.00 0.02 86 992.4
20260506070948 57 292 3.0 3.0 0.00 0.00 0.02 86 992.4
20260506070647 57 225 1.0 1.0 0.00 0.00 0.02 86 992.4
20260506070347 56 180 2.0 2.0 0.00 0.00 0.02 87 992.4
20260506062448 55 202 1.0 1.0 0.00 0.00 0.02 87 992.6
20260506062148 54 270 1.0 1.0 0.00 0.00 0.02 87 992.6
20260506061847 54 202 1.0 1.0 0.00 0.00 0.02 87 992.6
20260506061548 54 180 0.0 0.0 0.00 0.00 0.02 86 992.6
20260506061247 54 225 2.0 2.0 0.00 0.00 0.02 87 992.6
20260506060948 54 270 4.0 4.0 0.00 0.00 0.02 86 992.6
20260506060648 54 225 4.0 4.0 0.00 0.00 0.02 86 992.6
20260506060350 54 270 1.0 1.0 0.00 0.00 0.02 87 992.6
20260506051247 53 225 4.0 4.0 0.00 0.00 0.02 88 992.6
20260506050950 53 180 2.0 2.0 0.00 0.00 0.02 87 992.9
20260506050648 53 202 8.0 8.0 0.00 0.00 0.02 88 992.6
20260506050347 53 337 3.0 3.0 0.00 0.00 0.02 87 992.6
20260506044848 53 202 1.0 1.0 0.00 0.00 0.02 88 992.9
20260506044548 53 270 3.0 3.0 0.00 0.00 0.02 88 992.9
20260506043648 53 225 2.0 2.0 0.00 0.00 0.02 88 992.4
20260506043348 53 315 1.0 1.0 0.00 0.00 0.02 88 992.4
20260506043048 53 337 1.0 1.0 0.00 0.00 0.02 88 992.4
20260506042748 53 337 1.0 1.0 0.00 0.00 0.02 88 992.4
20260506042450 53 270 1.0 1.0 0.00 0.00 0.02 88 992.4
20260506042147 53 270 2.0 2.0 0.00 0.00 0.02 88 992.4
20260506041847 53 225 2.0 2.0 0.00 0.00 0.02 88 992.4
20260506041546 53 270 3.0 3.0 0.00 0.00 0.02 88 992.4
20260506041248 53 247 2.0 2.0 0.00 0.00 0.02 88 992.4
20260506040947 53 337 4.0 4.0 0.00 0.00 0.02 88 992.4
20260506040650 53 337 5.0 5.0 0.00 0.00 0.02 88 992.4
20260506040347 53 225 4.0 4.0 0.00 0.00 0.02 88 992.4
20260506040048 53 225 9.0 9.0 0.00 0.00 0.02 88 992.4
20260506035748 53 225 1.0 1.0 0.00 0.00 0.02 88 992.4
20260506035448 53 225 3.0 4.0 0.00 0.00 0.02 89 992.4
20260506035148 53 225 5.0 6.0 0.00 0.00 0.02 88 992.4
20260506034850 53 202 2.0 2.0 0.00 0.00 0.02 88 992.4
20260506034546 53 225 2.0 2.0 0.00 0.00 0.02 88 992.1
20260506034248 53 225 4.0 4.0 0.00 0.00 0.02 88 992.1
20260506033947 53 337 1.0 1.0 0.00 0.00 0.02 88 992.1
20260506033647 53 225 4.0 4.0 0.00 0.00 0.02 88 992.4
20260506033347 53 337 3.0 3.0 0.00 0.00 0.02 88 992.1
20260506033048 53 180 3.0 3.0 0.00 0.00 0.02 88 992.1
20260506032747 53 270 4.0 4.0 0.00 0.00 0.02 89 992.1
20260506032447 53 225 1.0 1.0 0.00 0.00 0.02 88 992.4
20260506032147 53 225 3.0 3.0 0.00 0.00 0.02 89 992.1
20260506031847 53 337 4.0 4.0 0.00 0.00 0.02 88 992.1
20260506031548 53 225 7.0 7.0 0.00 0.00 0.02 88 992.1
20260506030946 53 202 2.0 2.0 0.00 0.00 0.02 89 992.1
20260506030647 53 247 4.0 4.0 0.00 0.00 0.02 88 992.1
20260506030348 53 225 4.0 4.0 0.00 0.00 0.02 88 992.4
20260506030048 53 225 3.0 3.0 0.00 0.00 0.02 88 992.4
20260506025447 53 225 5.0 5.0 0.00 0.00 0.02 88 992.4
20260506025147 53 180 2.0 2.0 0.00 0.00 0.02 88 992.4
20260506024848 53 225 1.0 2.0 0.00 0.00 0.02 88 992.4
20260506024547 53 225 3.0 3.0 0.00 0.00 0.02 88 992.4
20260506024248 53 270 3.0 3.0 0.00 0.00 0.02 88 992.4
20260506023947 53 225 3.0 3.0 0.00 0.00 0.02 88 992.4
20260506023648 53 180 1.0 1.0 0.00 0.00 0.02 88 992.4
20260506023348 53 225 2.0 2.0 0.00 0.00 0.02 88 992.4
20260506023048 53 270 3.0 3.0 0.00 0.00 0.02 88 992.4
20260506022747 53 337 3.0 3.0 0.00 0.00 0.02 88 992.4
20260506022148 53 225 3.0 3.0 0.00 0.00 0.00 88 992.4
20260506021847 53 225 4.0 4.0 0.00 0.00 0.00 88 992.4
20260506021548 53 180 1.0 1.0 0.00 0.00 0.00 88 992.4
20260506021247 53 337 1.0 2.0 0.00 0.00 0.00 88 992.4
20260506020947 53 337 2.0 2.0 0.00 0.00 0.00 88 992.4
20260506020650 53 225 1.0 1.0 0.00 0.00 0.00 88 992.4
20260506020348 53 225 2.0 2.0 0.00 0.00 0.00 88 992.4
20260506020047 53 225 1.0 2.0 0.00 0.00 0.00 88 992.4
20260506015748 53 270 0.0 0.0 0.00 0.00 0.00 88 992.4
20260506015448 53 225 1.0 1.0 0.00 0.00 0.00 88 992.4
20260506015147 53 337 2.0 2.0 0.00 0.00 0.00 88 992.4
20260506014847 53 180 2.0 2.0 0.00 0.00 0.00 88 992.6
20260506014548 53 225 1.0 1.0 0.00 0.00 0.00 88 992.6
20260506014248 53 337 3.0 3.0 0.00 0.00 0.00 88 992.6
20260506013947 53 270 1.0 1.0 0.00 0.00 0.00 88 992.6
20260506013647 53 337 7.0 7.0 0.00 0.00 0.00 88 992.9
20260506013350 53 202 5.0 5.0 0.00 0.00 0.00 87 992.9
20260506013048 53 225 1.0 2.0 0.00 0.00 0.00 88 992.6
20260506012747 53 202 3.0 3.0 0.00 0.00 0.00 88 992.6
20260506012446 53 180 4.0 4.0 0.00 0.00 0.00 88 992.9
20260506012148 53 337 6.0 6.0 0.00 0.00 0.00 88 992.9
20260506011847 53 225 3.0 3.0 0.00 0.00 0.00 88 992.9
20260506011246 53 180 2.0 2.0 0.00 0.00 0.00 87 992.9
20260506010947 53 202 4.0 4.0 0.00 0.00 0.00 88 992.9
20260506010647 53 225 3.0 3.0 0.00 0.00 0.00 88 992.9
20260506010347 53 225 3.0 3.0 0.00 0.00 0.00 88 992.9
20260506010047 53 225 4.0 4.0 0.00 0.00 0.00 88 992.9
20260506005750 53 337 2.0 2.0 0.00 0.00 0.00 88 992.9
20260506005448 53 202 3.0 3.0 0.00 0.00 0.00 88 992.9
20260506005147 53 202 2.0 2.0 0.00 0.00 0.00 88 992.9
20260506004847 53 202 3.0 3.0 0.00 0.00 0.00 88 992.9
20260506004547 53 337 2.0 2.0 0.00 0.00 0.00 87 992.9
20260506004247 53 225 4.0 4.0 0.00 0.00 0.00 87 992.9